Soldotna, AK

5:23 AM AKDT on October 17, 2017 (GMT -0800)
Soldotna

Weather History for PASX - June, 2012

Change the Weather History Date:

Sunday, June 10, 2012

  Actual Average Record
Temperature  
Mean Temperature 50 °F -  
Max Temperature 62 °F 58 °F 70 °F (1968)
Min Temperature 39 °F 41 °F 29 °F (1985)
Degree Days  
Heating Degree Days 14    
Moisture  
Dew Point 40 °F    
Average Humidity 71    
Maximum Humidity 87    
Minimum Humidity 42    
Precipitation  
Precipitation 0.00 in - - ()
Sea Level Pressure  
Sea Level Pressure 29.87 in    
Wind  
Wind Speed 3 mph (WNW)    
Max Wind Speed 10 mph    
Max Gust Speed 16 mph    
Visibility 10 miles    
Events      
Averages and records for this station are not official NWS values.
T = Trace of Precipitation, MM = Missing Value Source: NWS Daily Summary

Daily Weather History Graph

Daily Weather History Graph

Search for Another Location

Airport or City:

Trip Planner

Search our weather history database for the weather conditions in past years. The results will help you decide how hot, cold, wet, or windy it might be!

Date:

Astronomy

Jun. 10, 2012 Rise Set
Actual Time 4:37 AM AKDT 11:31 PM AKDT
Civil Twilight 2:46 AM AKDT 1:23 AM AKDT
Nautical Twilight Sun does not rise Sun does not rise
Astronomical Twilight Sun does not rise Sun does not rise
Moon 1:45 AM AKDT (6/10) 1:27 PM AKDT (6/10)
Length of Visible Light 22h 36m
Length of Day
18h 53m
Waning Gibbous, 56% of the Moon is Illuminated
Jun 10
Waning Gibbous
Jun 11
Last Quarter
Jun 19
New
Jun 26
First Quarter
Jul 3
Full

Hourly Weather History & Observations

Time (AKDT) Temp. Windchill Dew Point Humidity Pressure Visibility Wind Dir Wind Speed Gust Speed Precip Events Conditions
12:16 AM 44.6 °F - 37.4 °F 76% 30.00 in 10.0 mi Calm Calm - N/A   Overcast
12:36 AM 44.6 °F - 37.4 °F 76% 29.99 in 10.0 mi Calm Calm - N/A   Overcast
12:56 AM 44.6 °F - 39.2 °F 81% 29.99 in 10.0 mi Calm Calm - N/A   Overcast
1:16 AM 44.6 °F - 39.2 °F 81% 29.98 in 10.0 mi Calm Calm - N/A   Overcast
1:36 AM 44.6 °F - 37.4 °F 76% 29.97 in 10.0 mi Calm Calm - N/A   Overcast
1:56 AM 44.6 °F - 39.2 °F 81% 29.97 in 10.0 mi Calm Calm - N/A   Mostly Cloudy
2:16 AM 42.8 °F - 37.4 °F 81% 29.96 in 10.0 mi Calm Calm - N/A   Mostly Cloudy
2:36 AM 42.8 °F 41.1 °F 37.4 °F 81% 29.96 in 10.0 mi ESE 3.5 mph - N/A   Mostly Cloudy
2:56 AM 41.0 °F 39.0 °F 37.4 °F 87% 29.95 in 10.0 mi ESE 3.5 mph - N/A   Overcast
3:16 AM 41.0 °F - 35.6 °F 81% 29.95 in 10.0 mi Calm Calm - N/A   Overcast
3:36 AM 39.2 °F 35.9 °F 35.6 °F 87% 29.95 in 10.0 mi ESE 4.6 mph - N/A   Overcast
3:56 AM 41.0 °F - 37.4 °F 87% 29.93 in 10.0 mi Calm Calm - N/A   Overcast
4:16 AM 41.0 °F - 37.4 °F 87% 29.93 in 10.0 mi Calm Calm - N/A   Overcast
4:36 AM 41.0 °F 38.0 °F 37.4 °F 87% 29.92 in 10.0 mi ESE 4.6 mph - N/A   Overcast
4:56 AM 41.0 °F 38.0 °F 37.4 °F 87% 29.92 in 10.0 mi East 4.6 mph - N/A   Overcast
5:16 AM 41.0 °F 38.0 °F 37.4 °F 87% 29.92 in 10.0 mi East 4.6 mph - N/A   Overcast
5:36 AM 41.0 °F - 37.4 °F 87% 29.91 in 10.0 mi Calm Calm - N/A   Overcast
5:56 AM 42.8 °F - 37.4 °F 81% 29.91 in 10.0 mi Calm Calm - N/A   Overcast
6:16 AM 42.8 °F - 37.4 °F 81% 29.90 in 10.0 mi Calm Calm - N/A   Overcast
6:36 AM 42.8 °F 41.1 °F 37.4 °F 81% 29.90 in 10.0 mi ESE 3.5 mph - N/A   Overcast
6:56 AM 42.8 °F 41.1 °F 37.4 °F 81% 29.90 in 10.0 mi East 3.5 mph - N/A   Overcast
7:16 AM 44.6 °F - 37.4 °F 76% 29.90 in 10.0 mi Calm Calm - N/A   Mostly Cloudy
7:36 AM 44.6 °F - 39.2 °F 81% 29.90 in 10.0 mi Calm Calm - N/A   Partly Cloudy
7:56 AM 44.6 °F - 39.2 °F 81% 29.89 in 10.0 mi Calm Calm - N/A   Mostly Cloudy
8:16 AM 46.4 °F - 39.2 °F 76% 29.88 in 10.0 mi Calm Calm - N/A   Scattered Clouds
8:36 AM 46.4 °F 43.5 °F 39.2 °F 76% 29.88 in 10.0 mi WNW 5.8 mph - N/A   Scattered Clouds
8:56 AM 46.4 °F 43.5 °F 39.2 °F 76% 29.88 in 10.0 mi WNW 5.8 mph - N/A   Overcast
9:16 AM 46.4 °F 44.3 °F 39.2 °F 76% 29.88 in 10.0 mi NW 4.6 mph - N/A   Overcast
9:36 AM 48.2 °F - 39.2 °F 71% 29.87 in 10.0 mi West 5.8 mph - N/A   Overcast
9:56 AM 48.2 °F - 39.2 °F 71% 29.87 in 10.0 mi West 3.5 mph - N/A   Overcast
10:16 AM 48.2 °F - 39.2 °F 71% 29.87 in 10.0 mi West 3.5 mph - N/A   Overcast
10:36 AM 48.2 °F - 39.2 °F 71% 29.87 in 10.0 mi NW 3.5 mph - N/A   Overcast
10:56 AM 48.2 °F - 39.2 °F 71% 29.87 in 10.0 mi NW 3.5 mph - N/A   Overcast
11:16 AM 50.0 °F - 39.2 °F 66% 29.86 in 10.0 mi WSW 4.6 mph - N/A   Overcast
11:36 AM 51.8 °F - 41.0 °F 67% 29.86 in 10.0 mi Calm Calm - N/A   Mostly Cloudy
11:56 AM 51.8 °F - 39.2 °F 62% 29.85 in 10.0 mi North 5.8 mph - N/A   Mostly Cloudy
12:16 PM 53.6 °F - 39.2 °F 58% 29.85 in 10.0 mi North 5.8 mph - N/A   Scattered Clouds
12:36 PM 55.4 °F - 39.2 °F 54% 29.84 in 10.0 mi Calm Calm - N/A   Partly Cloudy
12:56 PM 57.2 °F - 39.2 °F 51% 29.84 in 10.0 mi North 6.9 mph - N/A   Clear
1:16 PM 57.2 °F - 39.2 °F 51% 29.84 in 10.0 mi ENE 6.9 mph 16.1 mph N/A   Clear
1:36 PM 59.0 °F - 39.2 °F 48% 29.84 in 10.0 mi East 4.6 mph - N/A   Mostly Cloudy
1:56 PM 60.8 °F - 41.0 °F 48% 29.83 in 10.0 mi East 6.9 mph - N/A   Overcast
2:16 PM 62.6 °F - 39.2 °F 42% 29.83 in 10.0 mi ESE 10.4 mph - N/A   Overcast
2:36 PM 60.8 °F - 39.2 °F 45% 29.83 in 10.0 mi ENE 9.2 mph - N/A   Overcast
2:56 PM 60.8 °F - 39.2 °F 45% 29.82 in 10.0 mi NE 6.9 mph - N/A   Overcast
3:16 PM 60.8 °F - 42.8 °F 52% 29.82 in 10.0 mi NNW 3.5 mph - N/A   Overcast
3:36 PM 60.8 °F - 42.8 °F 52% 29.82 in 10.0 mi NNE 4.6 mph - N/A   Overcast
3:56 PM 60.8 °F - 42.8 °F 52% 29.82 in 10.0 mi North 4.6 mph - N/A   Overcast
4:16 PM 60.8 °F - 39.2 °F 45% 29.82 in 10.0 mi NE 3.5 mph - N/A   Mostly Cloudy
4:36 PM 59.0 °F - 44.6 °F 59% 29.82 in 10.0 mi West 5.8 mph - N/A   Overcast
4:56 PM 60.8 °F - 42.8 °F 52% 29.83 in 10.0 mi WSW 6.9 mph - N/A   Overcast
5:16 PM 55.4 °F - 44.6 °F 67% 29.83 in 10.0 mi SW 9.2 mph - N/A   Overcast
5:36 PM 55.4 °F - 44.6 °F 67% 29.83 in 10.0 mi WSW 8.1 mph - N/A   Overcast
5:56 PM 53.6 °F - 44.6 °F 72% 29.84 in 10.0 mi SW 4.6 mph - N/A   Overcast
6:16 PM 53.6 °F - 44.6 °F 72% 29.84 in 10.0 mi West 5.8 mph - N/A   Overcast
6:36 PM 53.6 °F - 44.6 °F 72% 29.83 in 10.0 mi WSW 3.5 mph - N/A   Overcast
6:56 PM 53.6 °F - 44.6 °F 72% 29.83 in 10.0 mi West 6.9 mph - N/A   Overcast
7:16 PM 53.6 °F - 42.8 °F 67% 29.83 in 10.0 mi WNW 6.9 mph - N/A   Overcast
7:36 PM 53.6 °F - 42.8 °F 67% 29.83 in 10.0 mi West 5.8 mph - N/A   Overcast
7:56 PM 53.6 °F - 42.8 °F 67% 29.82 in 10.0 mi West 6.9 mph - N/A   Overcast
8:16 PM 51.8 °F - 42.8 °F 71% 29.82 in 10.0 mi WNW 5.8 mph - N/A   Overcast
8:36 PM 51.8 °F - 42.8 °F 71% 29.83 in 10.0 mi WNW 4.6 mph - N/A   Overcast
8:56 PM 51.8 °F - 42.8 °F 71% 29.82 in 10.0 mi West 6.9 mph - N/A   Overcast
9:16 PM 51.8 °F - 42.8 °F 71% 29.82 in 10.0 mi West 5.8 mph - N/A   Overcast
9:36 PM 50.0 °F - 42.8 °F 76% 29.82 in 10.0 mi West 4.6 mph - N/A   Scattered Clouds
9:56 PM 50.0 °F - 42.8 °F 76% 29.82 in 10.0 mi WNW 3.5 mph - N/A   Partly Cloudy
10:16 PM 48.2 °F - 42.8 °F 82% 29.82 in 10.0 mi WSW 3.5 mph - N/A   Partly Cloudy
10:36 PM 48.2 °F - 42.8 °F 82% 29.82 in 10.0 mi Calm Calm - N/A   Clear
10:56 PM 46.4 °F - 41.0 °F 81% 29.83 in 9.0 mi Calm Calm - N/A   Clear
11:16 PM 46.4 °F - 41.0 °F 81% 29.83 in 10.0 mi Calm Calm - N/A   Mostly Cloudy
11:36 PM 44.6 °F 43.1 °F 39.2 °F 81% 29.83 in 10.0 mi West 3.5 mph - N/A   Overcast
11:56 PM 44.6 °F - 39.2 °F 81% 29.83 in 10.0 mi Calm Calm - N/A   Mostly Cloudy